DW0307 Weather Reports


time (UTC)temp
C
wind
direction
speed
KPH
gust
KPH
rain 1hr
cm
rain 24hr
cm
rain mn
cm
humidity
%
barometer
mb
20260902123053 24 263 11.3 22.5 0.00 0.00 0.00 41 1021.5
20260902121558 23 224 6.4 27.4 0.00 0.00 0.00 41 1021.6
20260902120057 23 302 17.7 25.7 0.00 0.00 0.00 43 1021.8
20260902114554 21 288 12.9 22.5 0.00 0.00 0.00 49 1021.9
20260902113049 21 352 1.6 11.3 0.00 0.00 0.00 47 1021.9
20260902111551 21 0 3.2 8.0 0.00 0.00 0.00 49 1022.1
20260902104605 20 329 1.6 8.0 0.00 0.00 0.00 49 1022.2
20260902103105 21 76 4.8 9.7 0.00 0.00 0.00 46 1022.4
20260902101604 21 44 6.4 12.9 0.00 0.00 0.00 47 1022.5
20260902100053 20 121 1.6 8.0 0.00 0.00 0.00 48 1022.7
20260902094552 20 0 0.0 6.4 0.00 0.00 0.00 49 1022.8
20260902093057 20 249 0.0 6.4 0.00 0.00 0.00 53 1023.0
20260902091552 20 266 1.6 11.3 0.00 0.00 0.00 51 1022.8
20260902090052 19 0 1.6 6.4 0.00 0.00 0.00 53 1023.0
20260902084554 20 331 3.2 6.4 0.00 0.00 0.00 54 1023.0
20260902083055 18 313 4.8 11.3 0.00 0.00 0.00 61 1022.9
20260902081555 18 13 1.6 4.8 0.00 0.00 0.00 62 1023.1
20260902080050 17 316 3.2 6.4 0.00 0.00 0.00 63 1023.0
20260902074558 17 44 3.2 6.4 0.00 0.00 0.00 62 1023.1
20260902073047 17 0 0.0 4.8 0.00 0.00 0.00 62 1023.0
20260902071552 17 0 0.0 4.8 0.00 0.00 0.00 65 1022.9
20260902070055 17 0 0.0 6.4 0.00 0.00 0.00 66 1022.9
20260902064557 16 86 0.0 6.4 0.00 0.00 0.00 68 1022.6
20260902063107 15 69 3.2 4.8 0.00 0.00 0.00 71 1022.7
20260902061609 14 281 1.6 4.8 0.00 0.00 0.00 76 1022.6
20260902060052 13 277 1.6 4.8 0.00 0.00 0.00 84 1022.8
20260902054553 11 0 0.0 3.2 0.00 0.00 0.00 88 1022.8
20260902053105 9 284 3.2 4.8 0.00 0.00 0.00 88 1022.8
20260902051606 8 0 1.6 4.8 0.00 0.00 0.00 89 1022.7
20260902050052 8 0 0.0 3.2 0.00 0.00 0.00 90 1022.7
20260902044606 6 0 0.0 1.6 0.00 0.00 0.00 90 1022.5
20260902043103 5 284 1.6 3.2 0.00 0.00 0.00 89 1022.4
20260902041555 5 0 0.0 0.0 0.00 0.00 0.00 89 1022.5
20260902040054 5 0 0.0 3.2 0.00 0.00 0.00 88 1022.4
20260902034603 5 0 0.0 1.6 0.00 0.00 0.00 88 1022.6
20260902033056 5 0 0.0 0.0 0.00 0.00 0.00 89 1022.5
20260902031600 5 0 0.0 3.2 0.00 0.00 0.00 88 1022.6
20260902030056 5 284 1.6 4.8 0.00 0.00 0.00 88 1022.4
20260902024557 5 284 1.6 4.8 0.00 0.00 0.00 88 1022.4
20260902023048 5 0 0.0 4.8 0.00 0.00 0.00 88 1022.5
20260902021552 5 294 3.2 6.4 0.00 0.00 0.00 87 1022.4
20260902020053 5 0 0.0 4.8 0.00 0.00 0.00 87 1022.4
20260902014547 5 296 0.0 3.2 0.00 0.00 0.00 87 1022.5
20260902013107 5 295 1.6 3.2 0.00 0.00 0.00 87 1022.5
20260902011553 6 296 1.6 6.4 0.00 0.00 0.00 87 1022.5
20260902010049 5 286 4.8 9.7 0.00 0.00 0.00 86 1022.6
20260902004559 6 303 0.0 3.2 0.00 0.00 0.00 86 1022.4
20260902003101 7 0 0.0 0.0 0.00 0.00 0.00 86 1022.5
20260902001554 7 303 0.0 3.2 0.00 0.00 0.00 86 1022.3
20260902000104 7 302 0.0 3.2 0.00 0.00 0.00 86 1022.2
20260901234607 6 302 1.6 3.2 0.00 0.00 0.00 85 1022.2
20260901233056 6 303 0.0 4.8 0.00 0.00 0.00 85 1022.0
20260901231604 7 303 3.2 4.8 0.00 0.00 0.00 84 1022.0
20260901230103 7 304 3.2 6.4 0.00 0.00 0.00 84 1022.0
20260901224549 7 304 1.6 4.8 0.00 0.00 0.00 83 1022.0
20260901223054 8 304 1.6 6.4 0.00 0.00 0.00 82 1021.9
20260901221606 8 304 1.6 8.0 0.00 0.00 0.00 81 1022.0
20260901220051 8 238 1.6 6.4 0.00 0.00 0.00 80 1022.0
20260901214546 10 184 1.6 4.8 0.00 0.00 0.00 78 1021.9
20260901213056 10 0 0.0 4.8 0.00 0.00 0.00 78 1021.9
20260901211550 11 182 1.6 8.0 0.00 0.00 0.00 75 1021.7
20260901210048 11 195 3.2 6.4 0.00 0.00 0.00 75 1021.6
20260901204554 12 259 3.2 9.7 0.00 0.00 0.00 72 1021.5
20260901203057 13 125 9.7 14.5 0.00 0.00 0.00 72 1021.4
20260901201550 13 0 1.6 6.4 0.00 0.00 0.00 72 1021.4
20260901200047 12 15 4.8 12.9 0.00 0.00 0.00 72 1021.4
20260901194603 14 171 1.6 8.0 0.00 0.00 0.00 69 1021.4
20260901193054 15 0 1.6 6.4 0.00 0.00 0.00 67 1021.4
20260901191550 15 0 4.8 12.9 0.00 0.00 0.00 65 1021.5
20260901190048 15 260 0.0 8.0 0.00 0.00 0.00 64 1021.3
20260901184603 16 0 4.8 12.9 0.00 0.00 0.00 60 1020.9
20260901183115 17 115 9.7 17.7 0.00 0.00 0.00 58 1020.7
20260901181552 18 103 9.7 32.2 0.00 0.00 0.00 54 1020.4
20260901180051 18 116 14.5 22.5 0.00 0.00 0.00 55 1020.3
20260901174556 18 88 6.4 14.5 0.00 0.00 0.00 56 1020.1
20260901173139 18 78 4.8 14.5 0.00 0.00 0.00 56 1019.9
20260901171600 19 41 4.8 24.1 0.00 0.00 0.00 55 1019.7
20260901170057 19 275 16.1 25.7 0.00 0.00 0.00 55 1019.5
20260901164559 20 233 22.5 30.6 0.00 0.00 0.00 51 1019.2
20260901163111 21 207 24.1 33.8 0.00 0.00 0.00 49 1019.3
20260901161602 21 226 16.1 25.7 0.00 0.00 0.00 50 1019.2
20260901160056 21 250 16.1 30.6 0.00 0.00 0.00 47 1019.3
20260901154549 22 225 20.9 30.6 0.00 0.00 0.00 45 1019.2
20260901153059 22 234 19.3 32.2 0.00 0.00 0.00 47 1019.1
20260901151559 22 253 24.1 35.4 0.00 0.00 0.00 47 1019.1
20260901144600 23 262 25.7 33.8 0.00 0.00 0.00 45 1018.9
20260901143108 23 264 22.5 30.6 0.00 0.00 0.00 44 1018.8
20260901141614 23 265 25.7 35.4 0.00 0.00 0.00 44 1018.8
20260901140057 23 265 22.5 32.2 0.00 0.00 0.00 43 1018.8
20260901134552 23 252 24.1 40.2 0.00 0.00 0.00 44 1018.9
20260901133050 23 246 25.7 35.4 0.00 0.00 0.00 44 1019.1
20260901131558 24 262 24.1 37.0 0.00 0.00 0.00 44 1019.1
20260901130057 24 243 24.1 37.0 0.00 0.00 0.00 44 1019.1
20260901124550 24 242 24.1 35.4 0.00 0.00 0.00 43 1019.2